PE4KH-1 Weather Reports


Display with metric or nautical units.
time (UTC)temp
F
wind
direction
speed
MPH
gust
MPH
rain 1hr
in
rain 24hr
in
rain mn
in
humidity
%
barometer
mb
20200219072305 45 0.0 0.0 0.00 0.00 0.00 82 1003.7
20200219071304 45 0.0 0.0 0.00 0.00 0.00 83 1003.5
20200219070304 45 0.0 0.0 0.00 0.00 0.00 84 1003.5
20200219065302 45 0.0 0.0 0.00 0.00 0.00 84 1003.3
20200219064302 45 0.0 0.0 0.00 0.00 0.00 84 1003.3
20200219063304 45 0.0 0.0 0.00 0.00 0.00 83 1003.0
20200219062302 45 0.0 0.0 0.00 0.00 0.00 82 1002.8
20200219061304 45 0.0 0.0 0.00 0.00 0.00 82 1002.6
20200219060304 45 0.0 0.0 0.00 0.00 0.00 82 1002.4
20200219055303 45 0.0 0.0 0.00 0.00 0.00 83 1002.4
20200219054302 45 0.0 0.0 0.00 0.00 0.00 83 1002.2
20200219053303 45 0.0 0.0 0.00 0.00 0.00 83 1002.2
20200219052304 45 0.0 0.0 0.00 0.00 0.00 83 1001.9
20200219051304 45 0.0 0.0 0.00 0.00 0.00 83 1001.7
20200219050302 45 0.0 0.0 0.00 0.00 0.00 83 1001.5
20200219045304 45 0.0 0.0 0.00 0.00 0.00 83 1001.5
20200219044302 45 0.0 0.0 0.00 0.00 0.00 83 1001.3
20200219043303 45 0.0 0.0 0.00 0.00 0.00 84 1001.0
20200219042304 45 0.0 0.0 0.00 0.00 0.00 83 1001.0
20200219041302 46 0.0 0.0 0.00 0.00 0.00 84 1000.8
20200219040305 46 0.0 0.0 0.00 0.00 0.00 84 1000.6
20200219035303 46 0.0 0.0 0.00 0.00 0.00 84 1000.4
20200219034303 46 0.0 0.0 0.00 0.00 0.00 84 1000.2
20200219033304 46 0.0 0.0 0.00 0.00 0.00 85 999.9
20200219032304 46 0.0 0.0 0.00 0.00 0.00 87 999.9
20200219031303 46 0.0 0.0 0.00 0.00 0.00 87 999.9
20200219030302 46 0.0 0.0 0.00 0.00 0.00 87 999.5
20200219025305 46 0.0 0.0 0.00 0.00 0.00 88 999.5
20200219024305 47 0.0 0.0 0.00 0.00 0.00 89 999.5
20200219023305 46 0.0 0.0 0.00 0.00 0.00 89 999.5
20200219022304 47 0.0 0.0 0.00 0.00 0.00 89 999.3
20200219021302 46 0.0 0.0 0.00 0.00 0.00 90 999.0
20200219020303 47 0.0 0.0 0.00 0.00 0.00 90 999.3
20200219015305 47 0.0 0.0 0.00 0.00 0.00 91 999.3
20200219014307 47 0.0 0.0 0.00 0.00 0.00 91 999.0
20200219013302 46 0.0 0.0 0.00 0.00 0.00 91 999.3
20200219012303 46 0.0 0.0 0.00 0.00 0.00 90 999.3
20200219011305 46 0.0 0.0 0.00 0.00 0.00 90 999.0
20200219010306 46 0.0 0.0 0.00 0.00 0.00 90 999.0
20200219005302 46 0.0 0.0 0.00 0.00 0.00 90 998.8
20200219004306 46 0.0 0.0 0.00 0.00 0.00 89 999.0
20200219003305 46 0.0 0.0 0.00 0.00 0.00 89 999.3
20200219002306 46 0.0 0.0 0.00 0.00 0.00 89 999.5
20200219001306 46 0.0 0.0 0.00 0.00 0.00 90 999.5
20200219000303 46 0.0 0.0 0.00 0.00 0.00 90 999.3
20200218235306 45 0.0 0.0 0.00 0.00 0.00 90 999.7
20200218234306 45 0.0 0.0 0.00 0.00 0.00 89 999.7
20200218233306 45 0.0 0.0 0.00 0.00 0.00 87 999.9
20200218232304 45 0.0 0.0 0.00 0.00 0.00 81 1000.2
20200218231303 48 0.0 0.0 0.00 0.00 0.00 79 999.9
20200218230306 49 0.0 0.0 0.00 0.00 0.00 82 999.3
20200218225303 49 0.0 0.0 0.00 0.00 0.00 83 999.3
20200218224306 49 0.0 0.0 0.00 0.00 0.00 83 999.3
20200218223305 49 0.0 0.0 0.00 0.00 0.00 84 999.5
20200218222302 49 0.0 0.0 0.00 0.00 0.00 83 999.7
20200218221305 50 0.0 0.0 0.00 0.00 0.00 81 999.9
20200218220303 50 0.0 0.0 0.00 0.00 0.00 81 999.9
20200218215306 50 0.0 0.0 0.00 0.00 0.00 81 1000.2
20200218214303 50 0.0 0.0 0.00 0.00 0.00 81 1000.4
20200218213305 50 0.0 0.0 0.00 0.00 0.00 81 1000.8
20200218212303 50 0.0 0.0 0.00 0.00 0.00 82 1001.0
20200218211305 50 0.0 0.0 0.00 0.00 0.00 82 1001.5
20200218210304 50 0.0 0.0 0.00 0.00 0.00 83 1001.7
20200218205302 49 0.0 0.0 0.00 0.00 0.00 84 1001.7
20200218204303 49 0.0 0.0 0.00 0.00 0.00 85 1001.9
20200218203305 49 0.0 0.0 0.00 0.00 0.00 85 1001.9
20200218202303 49 0.0 0.0 0.00 0.00 0.00 85 1002.2
20200218201307 50 0.0 0.0 0.00 0.00 0.00 84 1002.4
20200218200305 50 0.0 0.0 0.00 0.00 0.00 83 1002.6
20200218195304 50 0.0 0.0 0.00 0.00 0.00 80 1002.6
20200218194311 50 0.0 0.0 0.00 0.00 0.00 78 1002.6
20200218193306 50 0.0 0.0 0.00 0.00 0.00 79 1003.0
20200218192304 51 0.0 0.0 0.00 0.00 0.00 79 1003.0
20200218191306 51 0.0 0.0 0.00 0.00 0.00 75 1003.3
20200218190304 51 0.0 0.0 0.00 0.00 0.00 74 1003.3
20200218185304 51 0.0 0.0 0.00 0.00 0.00 74 1003.5
20200218184305 51 0.0 0.0 0.00 0.00 0.00 74 1003.5
20200218183303 51 0.0 0.0 0.00 0.00 0.00 73 1003.7
20200218182304 51 0.0 0.0 0.00 0.00 0.00 73 1003.7
20200218181303 51 0.0 0.0 0.00 0.00 0.00 72 1003.9
20200218180306 51 0.0 0.0 0.00 0.00 0.00 70 1004.2
20200218175304 51 0.0 0.0 0.00 0.00 0.00 70 1004.2
20200218174307 51 0.0 0.0 0.00 0.00 0.00 69 1004.4
20200218173304 51 0.0 0.0 0.00 0.00 0.00 69 1004.4
20200218172306 51 0.0 0.0 0.00 0.00 0.00 68 1004.6
20200218171306 51 0.0 0.0 0.00 0.00 0.00 68 1004.6
20200218170304 51 0.0 0.0 0.00 0.00 0.00 68 1004.6
20200218165306 51 0.0 0.0 0.00 0.00 0.00 67 1004.6
20200218164306 52 0.0 0.0 0.00 0.00 0.00 67 1004.8
20200218163305 52 0.0 0.0 0.00 0.00 0.00 68 1004.8
20200218162306 52 0.0 0.0 0.00 0.00 0.00 68 1004.8
20200218161302 52 0.0 0.0 0.00 0.00 0.00 68 1005.3
20200218160303 52 0.0 0.0 0.00 0.00 0.00 65 1005.3
20200218155304 52 0.0 0.0 0.00 0.00 0.00 65 1005.0
20200218154306 52 0.0 0.0 0.00 0.00 0.00 68 1005.3
20200218153305 52 0.0 0.0 0.00 0.00 0.00 67 1005.3
20200218152304 52 0.0 0.0 0.00 0.00 0.00 66 1005.3
20200218151306 52 0.0 0.0 0.00 0.00 0.00 66 1005.5
20200218150306 52 0.0 0.0 0.00 0.00 0.00 64 1005.5
20200218145303 53 0.0 0.0 0.00 0.00 0.00 65 1005.7
20200218144304 52 0.0 0.0 0.00 0.00 0.00 66 1005.7
20200218143306 52 0.0 0.0 0.00 0.00 0.00 64 1005.7
20200218142302 52 0.0 0.0 0.00 0.00 0.00 64 1005.9
20200218141303 52 0.0 0.0 0.00 0.00 0.00 65 1006.2
20200218140304 52 0.0 0.0 0.00 0.00 0.00 64 1006.2
20200218135307 52 0.0 0.0 0.00 0.00 0.00 65 1006.4
20200218134305 52 0.0 0.0 0.00 0.00 0.00 65 1006.6
20200218133306 52 0.0 0.0 0.00 0.00 0.00 68 1006.4
20200218132302 51 0.0 0.0 0.00 0.00 0.00 67 1006.4
20200218131304 51 0.0 0.0 0.00 0.00 0.00 66 1006.4
20200218130305 51 0.0 0.0 0.00 0.00 0.00 66 1006.4
20200218125302 51 0.0 0.0 0.00 0.00 0.00 67 1006.4
20200218124302 52 0.0 0.0 0.00 0.00 0.00 68 1006.4
20200218123303 52 0.0 0.0 0.00 0.00 0.00 68 1006.4
20200218122302 52 0.0 0.0 0.00 0.00 0.00 73 1006.2
20200218121305 52 0.0 0.0 0.00 0.00 0.00 74 1006.6
20200218120307 51 0.0 0.0 0.00 0.00 0.00 78 1006.6
20200218115306 51 0.0 0.0 0.00 0.00 0.00 78 1006.6
20200218114304 50 0.0 0.0 0.00 0.00 0.00 81 1006.8
20200218113305 50 0.0 0.0 0.00 0.00 0.00 82 1006.8
20200218112306 50 0.0 0.0 0.00 0.00 0.00 81 1006.6
20200218111304 50 0.0 0.0 0.00 0.00 0.00 81 1006.8
20200218110306 50 0.0 0.0 0.00 0.00 0.00 84 1006.8
20200218105306 49 0.0 0.0 0.00 0.00 0.00 83 1007.0
20200218104304 50 0.0 0.0 0.00 0.00 0.00 79 1007.0
20200218103303 50 0.0 0.0 0.00 0.00 0.00 77 1007.0
20200218102305 50 0.0 0.0 0.00 0.00 0.00 77 1007.0
20200218101304 50 0.0 0.0 0.00 0.00 0.00 77 1007.0
20200218100304 50 0.0 0.0 0.00 0.00 0.00 78 1007.0
20200218095305 50 0.0 0.0 0.00 0.00 0.00 78 1007.0
20200218094306 49 0.0 0.0 0.00 0.00 0.00 78 1007.0
20200218093306 49 0.0 0.0 0.00 0.00 0.00 81 1007.0
20200218092305 48 0.0 0.0 0.00 0.00 0.00 81 1007.0
20200218091302 48 0.0 0.0 0.00 0.00 0.00 83 1007.0
20200218090306 48 0.0 0.0 0.00 0.00 0.00 83 1007.0
20200218085302 48 0.0 0.0 0.00 0.00 0.00 82 1007.0
20200218084305 48 0.0 0.0 0.00 0.00 0.00 82 1007.0
20200218083305 48 0.0 0.0 0.00 0.00 0.00 82 1007.0
20200218082305 47 0.0 0.0 0.00 0.00 0.00 82 1007.0
20200218081304 47 0.0 0.0 0.00 0.00 0.00 82 1006.8
20200218080302 47 0.0 0.0 0.00 0.00 0.00 83 1006.8
20200218075302 47 0.0 0.0 0.00 0.00 0.00 83 1006.6
20200218074304 47 0.0 0.0 0.00 0.00 0.00 84 1006.8
20200218073303 47 0.0 0.0 0.00 0.00 0.00 82 1006.6